date,time,SUV Intensity [MED/Hr],UV Index,Daily total [MED],Since Last [MED]
07/02/2022,00:04:22,0.000,0.0,0.0,0.0
07/02/2022,00:05:22,0.000,0.0,0.0,0.0
07/02/2022,00:06:30,0.000,0.0,0.0,0.0
07/02/2022,00:07:21,-0.000,0.0,0.0,0.0
07/02/2022,00:08:21,0.000,0.0,0.0,0.0
07/02/2022,00:09:22,-0.000,0.0,0.0,0.0
07/02/2022,00:10:22,0.000,0.0,0.0,0.0
07/02/2022,00:11:22,0.000,0.0,0.0,0.0
07/02/2022,00:12:22,-0.001,0.0,0.0,0.0
07/02/2022,00:13:31,-0.000,0.0,0.0,0.0
07/02/2022,00:14:21,-0.000,0.0,0.0,0.0
07/02/2022,00:15:21,-0.001,0.0,0.0,0.0
07/02/2022,00:16:30,-0.000,0.0,0.0,0.0
07/02/2022,00:17:09,0.001,0.0,0.0,0.0
07/02/2022,00:18:23,0.000,0.0,0.0,0.0
07/02/2022,00:19:30,-0.000,0.0,0.0,0.0
07/02/2022,00:20:21,0.000,0.0,0.0,0.0
07/02/2022,00:21:22,0.001,0.0,0.0,0.0
07/02/2022,00:22:22,0.000,0.0,0.0,0.0
07/02/2022,00:23:22,0.001,0.0,0.0,0.0
07/02/2022,00:24:23,0.000,0.0,0.0,0.0
07/02/2022,00:25:21,-0.001,0.0,0.0,0.0
07/02/2022,00:26:22,-0.000,0.0,0.0,0.0
07/02/2022,00:27:21,-0.000,0.0,0.0,0.0
07/02/2022,00:28:22,0.000,0.0,0.0,0.0
07/02/2022,00:29:22,-0.001,0.0,0.0,0.0
07/02/2022,00:30:22,0.001,0.0,0.0,0.0
07/02/2022,00:31:22,0.000,0.0,0.0,0.0
07/02/2022,00:32:22,0.001,0.0,0.0,0.0
07/02/2022,00:33:22,-0.001,0.0,0.0,0.0
07/02/2022,00:34:21,-0.000,0.0,0.0,0.0
07/02/2022,00:35:22,0.001,0.0,0.0,0.0
07/02/2022,00:36:22,0.000,0.0,0.0,0.0
07/02/2022,00:37:21,-0.000,0.0,0.0,0.0
07/02/2022,00:38:22,0.000,0.0,0.0,0.0
07/02/2022,00:39:23,0.000,0.0,0.0,0.0
07/02/2022,00:40:22,0.000,0.0,0.0,0.0
07/02/2022,00:41:22,0.000,0.0,0.0,0.0
07/02/2022,00:42:21,-0.001,0.0,0.0,0.0
07/02/2022,00:43:21,0.000,0.0,0.0,0.0
07/02/2022,00:44:21,0.000,0.0,0.0,0.0
07/02/2022,00:45:21,-0.000,0.0,0.0,0.0
07/02/2022,00:46:22,0.000,0.0,0.0,0.0
07/02/2022,00:47:30,-0.001,0.0,0.0,0.0
07/02/2022,00:48:22,-0.001,0.0,0.0,0.0
07/02/2022,00:49:22,0.000,0.0,0.0,0.0
07/02/2022,00:50:22,0.000,0.0,0.0,0.0
07/02/2022,00:51:22,0.000,0.0,0.0,0.0
07/02/2022,00:52:21,0.000,0.0,0.0,0.0
07/02/2022,00:53:30,-0.001,0.0,0.0,0.0
07/02/2022,00:54:21,-0.001,0.0,0.0,0.0
07/02/2022,00:55:39,0.000,0.0,0.0,0.0
07/02/2022,00:57:23,0.001,0.0,0.0,0.0
07/02/2022,00:58:22,0.000,0.0,0.0,0.0
07/02/2022,00:59:22,0.000,0.0,0.0,0.0
07/02/2022,01:00:22,0.000,0.0,0.0,0.0
07/02/2022,01:01:21,0.001,0.0,0.0,0.0
07/02/2022,01:02:21,-0.001,0.0,0.0,0.0
07/02/2022,01:03:22,0.000,0.0,0.0,0.0
07/02/2022,01:04:30,0.000,0.0,0.0,0.0
07/02/2022,01:05:22,0.000,0.0,0.0,0.0
07/02/2022,01:06:21,0.001,0.0,0.0,0.0
07/02/2022,01:07:22,0.000,0.0,0.0,0.0
07/02/2022,01:08:22,0.000,0.0,0.0,0.0
07/02/2022,01:09:22,0.000,0.0,0.0,0.0
07/02/2022,01:10:22,0.000,0.0,0.0,0.0
07/02/2022,01:11:22,-0.001,0.0,0.0,0.0
07/02/2022,01:12:21,0.001,0.0,0.0,0.0
07/02/2022,01:13:22,0.000,0.0,0.0,0.0
07/02/2022,01:14:30,0.000,0.0,0.0,0.0
07/02/2022,01:15:22,0.000,0.0,0.0,0.0
07/02/2022,01:16:22,-0.001,0.0,0.0,0.0
07/02/2022,01:17:22,0.000,0.0,0.0,0.0
07/02/2022,01:18:22,0.000,0.0,0.0,0.0
07/02/2022,01:19:22,0.000,0.0,0.0,0.0
07/02/2022,01:20:22,0.000,0.0,0.0,0.0
07/02/2022,01:21:22,0.000,0.0,0.0,0.0
07/02/2022,01:22:22,0.001,0.0,0.0,0.0
07/02/2022,01:23:22,0.001,0.0,0.0,0.0
07/02/2022,01:24:22,-0.000,0.0,0.0,0.0
07/02/2022,01:25:22,0.000,0.0,0.0,0.0
07/02/2022,01:26:22,0.000,0.0,0.0,0.0
07/02/2022,01:27:23,0.000,0.0,0.0,0.0
07/02/2022,01:28:30,0.001,0.0,0.0,0.0
07/02/2022,01:29:21,-0.001,0.0,0.0,0.0
07/02/2022,01:30:22,0.000,0.0,0.0,0.0
07/02/2022,01:31:22,0.000,0.0,0.0,0.0
07/02/2022,01:32:22,0.000,0.0,0.0,0.0
07/02/2022,01:33:23,0.000,0.0,0.0,0.0
07/02/2022,01:34:21,-0.001,0.0,0.0,0.0
07/02/2022,01:35:31,0.000,0.0,0.0,0.0
07/02/2022,01:36:22,0.000,0.0,0.0,0.0
07/02/2022,01:37:22,0.000,0.0,0.0,0.0
07/02/2022,01:38:30,0.000,0.0,0.0,0.0
07/02/2022,01:39:22,0.001,0.0,0.0,0.0
07/02/2022,01:40:21,0.001,0.0,0.0,0.0
07/02/2022,01:41:21,0.000,0.0,0.0,0.0
07/02/2022,01:42:22,0.001,0.0,0.0,0.0
07/02/2022,01:43:22,-0.001,0.0,0.0,0.0
07/02/2022,01:44:22,0.000,0.0,0.0,0.0
07/02/2022,01:45:23,0.000,0.0,0.0,0.0
07/02/2022,01:46:22,0.000,0.0,0.0,0.0
07/02/2022,01:47:22,-0.001,0.0,0.0,0.0
07/02/2022,01:48:31,0.000,0.0,0.0,0.0
07/02/2022,01:49:22,0.000,0.0,0.0,0.0
07/02/2022,01:50:22,0.000,0.0,0.0,0.0
07/02/2022,01:51:22,0.000,0.0,0.0,0.0
07/02/2022,01:52:22,0.001,0.0,0.0,0.0
07/02/2022,01:53:22,0.000,0.0,0.0,0.0
07/02/2022,01:54:22,0.000,0.0,0.0,0.0
07/02/2022,01:55:22,-0.000,0.0,0.0,0.0
07/02/2022,01:56:22,0.000,0.0,0.0,0.0
07/02/2022,01:57:22,0.001,0.0,0.0,0.0
07/02/2022,01:58:22,-0.001,0.0,0.0,0.0
07/02/2022,01:59:22,0.000,0.0,0.0,0.0
07/02/2022,02:00:22,0.000,0.0,0.0,0.0
07/02/2022,02:01:22,0.001,0.0,0.0,0.0
07/02/2022,02:02:30,0.000,0.0,0.0,0.0
07/02/2022,02:03:22,0.001,0.0,0.0,0.0
07/02/2022,02:04:22,0.000,0.0,0.0,0.0
07/02/2022,02:05:22,-0.001,0.0,0.0,0.0
07/02/2022,02:06:22,0.001,0.0,0.0,0.0
07/02/2022,02:07:22,0.001,0.0,0.0,0.0
07/02/2022,02:08:22,0.000,0.0,0.0,0.0
07/02/2022,02:09:22,0.001,0.0,0.0,0.0
07/02/2022,02:10:22,0.000,0.0,0.0,0.0
07/02/2022,02:11:21,0.000,0.0,0.0,0.0
07/02/2022,02:12:22,0.000,0.0,0.0,0.0
07/02/2022,02:13:21,0.000,0.0,0.0,0.0
07/02/2022,02:14:22,0.000,0.0,0.0,0.0
07/02/2022,02:15:23,0.001,0.0,0.0,0.0
07/02/2022,02:16:22,0.000,0.0,0.0,0.0
07/02/2022,02:17:22,0.001,0.0,0.0,0.0
07/02/2022,02:18:22,0.000,0.0,0.0,0.0
07/02/2022,02:19:21,0.000,0.0,0.0,0.0
07/02/2022,02:20:22,-0.001,0.0,0.0,0.0
07/02/2022,02:21:23,-0.000,0.0,0.0,0.0
07/02/2022,02:22:22,0.000,0.0,0.0,0.0
07/02/2022,02:23:22,0.001,0.0,0.0,0.0
07/02/2022,02:24:22,-0.001,0.0,0.0,0.0
07/02/2022,02:25:22,-0.001,0.0,0.0,0.0
07/02/2022,02:26:22,0.000,0.0,0.0,0.0
07/02/2022,02:27:23,0.000,0.0,0.0,0.0
07/02/2022,02:29:14,0.000,0.0,0.0,0.0
07/02/2022,02:30:31,0.001,0.0,0.0,0.0
07/02/2022,02:31:22,0.001,0.0,0.0,0.0
07/02/2022,02:32:22,0.000,0.0,0.0,0.0
07/02/2022,02:33:22,-0.001,0.0,0.0,0.0
07/02/2022,02:34:21,0.000,0.0,0.0,0.0
07/02/2022,02:35:21,0.000,0.0,0.0,0.0
07/02/2022,02:36:22,0.000,0.0,0.0,0.0
07/02/2022,02:37:22,0.000,0.0,0.0,0.0
07/02/2022,02:38:23,0.000,0.0,0.0,0.0
07/02/2022,02:39:22,-0.000,0.0,0.0,0.0
07/02/2022,02:40:22,0.000,0.0,0.0,0.0
07/02/2022,02:41:22,0.000,0.0,0.0,0.0
07/02/2022,02:42:23,0.000,0.0,0.0,0.0
07/02/2022,02:43:22,0.000,0.0,0.0,0.0
07/02/2022,02:44:23,0.000,0.0,0.0,0.0
07/02/2022,02:45:22,0.000,0.0,0.0,0.0
07/02/2022,02:46:23,0.000,0.0,0.0,0.0
07/02/2022,02:47:21,0.000,0.0,0.0,0.0
07/02/2022,02:48:22,0.001,0.0,0.0,0.0
07/02/2022,02:49:22,-0.000,0.0,0.0,0.0
07/02/2022,02:50:22,0.000,0.0,0.0,0.0
07/02/2022,02:51:22,0.000,0.0,0.0,0.0
07/02/2022,02:52:22,0.000,0.0,0.0,0.0
07/02/2022,02:53:22,0.001,0.0,0.0,0.0
07/02/2022,02:54:30,0.000,0.0,0.0,0.0
07/02/2022,02:55:22,-0.001,0.0,0.0,0.0
07/02/2022,02:56:22,0.000,0.0,0.0,0.0
07/02/2022,02:57:22,0.001,0.0,0.0,0.0
07/02/2022,02:58:22,0.001,0.0,0.0,0.0
07/02/2022,02:59:22,0.000,0.0,0.0,0.0
07/02/2022,03:00:22,0.000,0.0,0.0,0.0
07/02/2022,03:01:22,0.001,0.0,0.0,0.0
07/02/2022,03:02:22,0.001,0.0,0.0,0.0
07/02/2022,03:03:22,0.002,0.0,0.0,0.0
07/02/2022,03:04:31,-0.000,0.0,0.0,0.0
07/02/2022,03:05:22,0.000,0.0,0.0,0.0
07/02/2022,03:06:22,0.000,0.0,0.0,0.0
07/02/2022,03:07:22,0.000,0.0,0.0,0.0
07/02/2022,03:08:22,0.000,0.0,0.0,0.0
07/02/2022,03:09:21,0.000,0.0,0.0,0.0
07/02/2022,03:10:22,0.000,0.0,0.0,0.0
07/02/2022,03:11:22,0.000,0.0,0.0,0.0
07/02/2022,03:12:22,0.001,0.0,0.0,0.0
07/02/2022,03:13:22,0.002,0.0,0.0,0.0
07/02/2022,03:14:22,0.000,0.0,0.0,0.0
07/02/2022,03:15:22,-0.001,0.0,0.0,0.0
07/02/2022,03:16:22,0.000,0.0,0.0,0.0
07/02/2022,03:17:22,0.001,0.0,0.0,0.0
07/02/2022,03:18:22,0.000,0.0,0.0,0.0
07/02/2022,03:19:22,0.001,0.0,0.0,0.0
07/02/2022,03:20:22,0.000,0.0,0.0,0.0
07/02/2022,03:21:22,0.001,0.0,0.0,0.0
07/02/2022,03:22:23,0.000,0.0,0.0,0.0
07/02/2022,03:23:22,0.001,0.0,0.0,0.0
07/02/2022,03:24:22,0.001,0.0,0.0,0.0
07/02/2022,03:25:31,0.000,0.0,0.0,0.0
07/02/2022,03:26:22,0.001,0.0,0.0,0.0
07/02/2022,03:27:22,0.001,0.0,0.0,0.0
07/02/2022,03:28:30,0.001,0.0,0.0,0.0
07/02/2022,03:29:22,0.001,0.0,0.0,0.0
07/02/2022,03:30:21,0.001,0.0,0.0,0.0
07/02/2022,03:31:22,0.001,0.0,0.0,0.0
07/02/2022,03:32:22,0.001,0.0,0.0,0.0
07/02/2022,03:33:22,0.001,0.0,0.0,0.0
07/02/2022,03:34:22,0.001,0.0,0.0,0.0
07/02/2022,03:35:22,0.002,0.0,0.0,0.0
07/02/2022,03:36:22,0.001,0.0,0.0,0.0
07/02/2022,03:37:22,0.001,0.0,0.0,0.0
07/02/2022,03:38:31,0.001,0.0,0.0,0.0
07/02/2022,03:39:30,-0.000,0.0,0.0,0.0
07/02/2022,03:40:22,-0.001,0.0,0.0,0.0
07/02/2022,03:41:22,0.001,0.0,0.0,0.0
07/02/2022,03:42:21,0.000,0.0,0.0,0.0
07/02/2022,03:43:22,0.001,0.0,0.0,0.0
07/02/2022,03:44:22,0.001,0.0,0.0,0.0
07/02/2022,03:45:22,0.001,0.0,0.0,0.0
07/02/2022,03:46:22,-0.000,0.0,0.0,0.0
07/02/2022,03:47:22,0.000,0.0,0.0,0.0
07/02/2022,03:48:22,0.001,0.0,0.0,0.0
07/02/2022,03:49:32,0.000,0.0,0.0,0.0
07/02/2022,03:50:22,0.000,0.0,0.0,0.0
07/02/2022,03:51:23,0.000,0.0,0.0,0.0
07/02/2022,03:52:22,0.001,0.0,0.0,0.0
07/02/2022,03:53:22,0.000,0.0,0.0,0.0
07/02/2022,03:54:22,-0.000,0.0,0.0,0.0
07/02/2022,03:55:22,0.001,0.0,0.0,0.0
07/02/2022,03:56:22,0.000,0.0,0.0,0.0
07/02/2022,03:57:22,0.001,0.0,0.0,0.0
07/02/2022,03:58:22,0.000,0.0,0.0,0.0
07/02/2022,03:59:31,0.000,0.0,0.0,0.0
07/02/2022,04:00:21,0.001,0.0,0.0,0.0
07/02/2022,04:01:22,0.001,0.0,0.0,0.0
07/02/2022,04:02:23,0.000,0.0,0.0,0.0
07/02/2022,04:03:22,0.000,0.0,0.0,0.0
07/02/2022,04:04:22,0.001,0.0,0.0,0.0
07/02/2022,04:05:22,0.000,0.0,0.0,0.0
07/02/2022,04:06:22,0.002,0.0,0.0,0.0
07/02/2022,04:07:32,0.000,0.0,0.0,0.0
07/02/2022,04:08:21,0.000,0.0,0.0,0.0
07/02/2022,04:09:22,0.001,0.0,0.0,0.0
07/02/2022,04:10:22,0.001,0.0,0.0,0.0
07/02/2022,04:11:22,0.001,0.0,0.0,0.0
07/02/2022,04:12:22,0.001,0.0,0.0,0.0
07/02/2022,04:13:22,0.000,0.0,0.0,0.0
07/02/2022,04:14:22,0.001,0.0,0.0,0.0
07/02/2022,04:15:22,0.000,0.0,0.0,0.0
07/02/2022,04:16:22,-0.001,0.0,0.0,0.0
07/02/2022,04:17:30,0.001,0.0,0.0,0.0
07/02/2022,04:18:22,0.001,0.0,0.0,0.0
07/02/2022,04:19:22,0.001,0.0,0.0,0.0
07/02/2022,04:20:30,0.001,0.0,0.0,0.0
07/02/2022,04:21:22,-0.000,0.0,0.0,0.0
07/02/2022,04:22:22,0.001,0.0,0.0,0.0
07/02/2022,04:23:22,0.002,0.0,0.0,0.0
07/02/2022,04:24:22,0.001,0.0,0.0,0.0
07/02/2022,04:25:22,-0.000,0.0,0.0,0.0
07/02/2022,04:26:22,-0.000,0.0,0.0,0.0
07/02/2022,04:27:23,0.000,0.0,0.0,0.0
07/02/2022,04:28:23,0.001,0.0,0.0,0.0
07/02/2022,04:29:22,0.001,0.0,0.0,0.0
07/02/2022,04:30:31,0.002,0.0,0.0,0.0
07/02/2022,04:31:22,0.002,0.0,0.0,0.0
07/02/2022,04:32:22,0.001,0.0,0.0,0.0
07/02/2022,04:33:22,0.000,0.0,0.0,0.0
07/02/2022,04:34:22,0.001,0.0,0.0,0.0
07/02/2022,04:35:22,0.001,0.0,0.0,0.0
07/02/2022,04:36:23,0.001,0.0,0.0,0.0
07/02/2022,04:37:23,0.000,0.0,0.0,0.0
07/02/2022,04:38:22,0.001,0.0,0.0,0.0
07/02/2022,04:39:22,0.001,0.0,0.0,0.0
07/02/2022,04:40:22,0.001,0.0,0.0,0.0
07/02/2022,04:41:22,0.000,0.0,0.0,0.0
07/02/2022,04:42:22,-0.000,0.0,0.0,0.0
07/02/2022,04:43:22,0.001,0.0,0.0,0.0
07/02/2022,04:44:22,0.001,0.0,0.0,0.0
07/02/2022,04:45:22,0.003,0.0,0.0,0.0
07/02/2022,04:46:22,0.001,0.0,0.0,0.0
07/02/2022,04:47:22,0.000,0.0,0.0,0.0
07/02/2022,04:48:31,0.000,0.0,0.0,0.0
07/02/2022,04:49:23,0.002,0.0,0.0,0.0
07/02/2022,04:50:22,0.001,0.0,0.0,0.0
07/02/2022,04:51:30,0.001,0.0,0.0,0.0
07/02/2022,04:52:22,0.000,0.0,0.0,0.0
07/02/2022,04:53:22,0.001,0.0,0.0,0.0
07/02/2022,04:54:09,-0.000,0.0,0.0,0.0
07/02/2022,04:55:23,0.002,0.0,0.0,0.0
07/02/2022,04:56:22,0.001,0.0,0.0,0.0
07/02/2022,04:57:22,0.001,0.0,0.0,0.0
07/02/2022,04:58:22,0.002,0.0,0.0,0.0
07/02/2022,04:59:22,0.002,0.0,0.0,0.0
07/02/2022,05:00:22,0.001,0.0,0.0,0.0
07/02/2022,05:01:22,0.002,0.0,0.0,0.0
07/02/2022,05:02:22,-0.000,0.0,0.0,0.0
07/02/2022,05:03:22,0.001,0.0,0.0,0.0
07/02/2022,05:04:22,0.001,0.0,0.0,0.0
07/02/2022,05:05:22,0.001,0.0,0.0,0.0
07/02/2022,05:06:22,0.001,0.0,0.0,0.0
07/02/2022,05:07:22,0.001,0.0,0.0,0.0
07/02/2022,05:08:22,0.001,0.0,0.0,0.0
07/02/2022,05:09:22,0.000,0.0,0.0,0.0
07/02/2022,05:10:22,0.001,0.0,0.0,0.0
07/02/2022,05:11:22,0.001,0.0,0.0,0.0
07/02/2022,05:12:22,0.001,0.0,0.0,0.0
07/02/2022,05:13:22,0.001,0.0,0.0,0.0
07/02/2022,05:14:22,0.001,0.0,0.0,0.0
07/02/2022,05:15:22,0.002,0.0,0.0,0.0
07/02/2022,05:16:22,-0.000,0.0,0.0,0.0
07/02/2022,05:17:22,0.001,0.0,0.0,0.0
07/02/2022,05:18:22,0.001,0.0,0.0,0.0
07/02/2022,05:19:23,0.001,0.0,0.0,0.0
07/02/2022,05:20:22,0.000,0.0,0.0,0.0
07/02/2022,05:21:22,0.001,0.0,0.0,0.0
07/02/2022,05:22:30,0.001,0.0,0.0,0.0
07/02/2022,05:23:23,0.001,0.0,0.0,0.0
07/02/2022,05:24:22,0.001,0.0,0.0,0.0
07/02/2022,05:25:31,0.001,0.0,0.0,0.0
07/02/2022,05:26:22,0.001,0.0,0.0,0.0
07/02/2022,05:27:23,0.000,0.0,0.0,0.0
07/02/2022,05:28:23,0.001,0.0,0.0,0.0
07/02/2022,05:29:22,0.001,0.0,0.0,0.0
07/02/2022,05:30:22,0.000,0.0,0.0,0.0
07/02/2022,05:31:24,0.002,0.0,0.0,0.0
07/02/2022,05:32:22,0.002,0.0,0.0,0.0
07/02/2022,05:33:22,0.001,0.0,0.0,0.0
07/02/2022,05:34:22,0.002,0.0,0.0,0.0
07/02/2022,05:35:22,0.001,0.0,0.0,0.0
07/02/2022,05:36:22,0.000,0.0,0.0,0.0
07/02/2022,05:37:22,0.001,0.0,0.0,0.0
07/02/2022,05:38:22,-0.000,0.0,0.0,0.0
07/02/2022,05:39:22,0.000,0.0,0.0,0.0
07/02/2022,05:40:22,0.000,0.0,0.0,0.0
07/02/2022,05:41:22,0.001,0.0,0.0,0.0
07/02/2022,05:42:22,0.001,0.0,0.0,0.0
07/02/2022,05:43:31,0.001,0.0,0.0,0.0
07/02/2022,05:44:22,0.002,0.0,0.0,0.0
07/02/2022,05:45:22,0.001,0.0,0.0,0.0
07/02/2022,05:46:22,0.001,0.0,0.0,0.0
07/02/2022,05:47:22,0.001,0.0,0.0,0.0
07/02/2022,05:48:22,0.000,0.0,0.0,0.0
07/02/2022,05:49:23,0.002,0.0,0.0,0.0
07/02/2022,05:50:23,0.001,0.0,0.0,0.0
07/02/2022,05:51:23,0.001,0.0,0.0,0.0
07/02/2022,05:52:22,0.001,0.0,0.0,0.0
07/02/2022,05:53:31,0.001,0.0,0.0,0.0
07/02/2022,05:54:30,0.001,0.0,0.0,0.0
07/02/2022,05:55:22,0.001,0.0,0.0,0.0
07/02/2022,05:57:15,0.001,0.0,0.0,0.0
07/02/2022,05:58:22,0.001,0.0,0.0,0.0
07/02/2022,05:59:22,0.001,0.0,0.0,0.0
07/02/2022,06:00:22,0.001,0.0,0.0,0.0
07/02/2022,06:01:22,0.002,0.0,0.0,0.0
07/02/2022,06:02:22,0.001,0.0,0.0,0.0
07/02/2022,06:03:21,0.001,0.0,0.0,0.0
07/02/2022,06:04:30,0.001,0.0,0.0,0.0
07/02/2022,06:05:22,0.001,0.0,0.0,0.0
07/02/2022,06:06:31,0.001,0.0,0.0,0.0
07/02/2022,06:07:30,0.001,0.0,0.0,0.0
07/02/2022,06:08:22,0.000,0.0,0.0,0.0
07/02/2022,06:09:22,0.001,0.0,0.0,0.0
07/02/2022,06:10:22,0.002,0.0,0.0,0.0
07/02/2022,06:11:22,0.000,0.0,0.0,0.0
07/02/2022,06:12:22,0.002,0.0,0.0,0.0
07/02/2022,06:14:23,0.001,0.0,0.0,0.0
07/02/2022,06:15:22,0.002,0.0,0.0,0.0
07/02/2022,06:16:22,0.000,0.0,0.0,0.0
07/02/2022,06:17:22,0.001,0.0,0.0,0.0
07/02/2022,06:18:22,0.001,0.0,0.0,0.0
07/02/2022,06:19:22,0.001,0.0,0.0,0.0
07/02/2022,06:20:22,0.001,0.0,0.0,0.0
07/02/2022,06:21:22,0.002,0.0,0.0,0.0
07/02/2022,06:22:24,0.002,0.0,0.0,0.0
07/02/2022,06:23:23,0.000,0.0,0.0,0.0
07/02/2022,06:24:22,0.001,0.0,0.0,0.0
07/02/2022,06:25:23,0.001,0.0,0.0,0.0
07/02/2022,06:26:22,0.001,0.0,0.0,0.0
07/02/2022,06:27:22,0.003,0.0,0.0,0.0
07/02/2022,06:28:23,0.001,0.0,0.0,0.0
07/02/2022,06:29:22,0.002,0.0,0.0,0.0
07/02/2022,06:30:23,0.002,0.0,0.0,0.0
07/02/2022,06:31:23,0.001,0.0,0.0,0.0
07/02/2022,06:32:31,0.001,0.0,0.0,0.0
07/02/2022,06:33:22,0.002,0.0,0.0,0.0
07/02/2022,06:34:22,0.002,0.0,0.0,0.0
07/02/2022,06:35:22,0.001,0.0,0.0,0.0
07/02/2022,06:36:23,0.002,0.0,0.0,0.0
07/02/2022,06:37:30,0.001,0.0,0.0,0.0
07/02/2022,06:38:10,0.001,0.0,0.0,0.0
07/02/2022,06:39:23,0.001,0.0,0.0,0.0
07/02/2022,06:40:22,0.001,0.0,0.0,0.0
07/02/2022,06:41:22,0.001,0.0,0.0,0.0
07/02/2022,06:42:31,0.001,0.0,0.0,0.0
07/02/2022,06:43:22,0.001,0.0,0.0,0.0
07/02/2022,06:44:23,0.001,0.0,0.0,0.0
07/02/2022,06:45:31,0.001,0.0,0.0,0.0
07/02/2022,06:46:31,0.001,0.0,0.0,0.0
07/02/2022,06:47:22,0.002,0.0,0.0,0.0
07/02/2022,06:48:23,0.000,0.0,0.0,0.0
07/02/2022,06:49:22,0.001,0.0,0.0,0.0
07/02/2022,06:50:22,0.002,0.0,0.0,0.0
07/02/2022,06:51:24,0.001,0.0,0.0,0.0
07/02/2022,06:52:22,0.001,0.0,0.0,0.0
07/02/2022,06:53:30,0.001,0.0,0.0,0.0
07/02/2022,06:54:22,0.001,0.0,0.0,0.0
07/02/2022,06:55:22,0.001,0.0,0.0,0.0
07/02/2022,06:56:22,0.001,0.0,0.0,0.0
07/02/2022,06:57:23,0.000,0.0,0.0,0.0
07/02/2022,06:58:23,0.001,0.0,0.0,0.0
07/02/2022,06:59:22,0.001,0.0,0.0,0.0
07/02/2022,07:00:23,0.001,0.0,0.0,0.0
07/02/2022,07:01:22,0.001,0.0,0.0,0.0
07/02/2022,07:02:22,0.001,0.0,0.0,0.0
07/02/2022,07:03:30,0.000,0.0,0.0,0.0
07/02/2022,07:04:22,0.001,0.0,0.0,0.0
07/02/2022,07:05:23,0.001,0.0,0.0,0.0
07/02/2022,07:06:22,0.002,0.0,0.0,0.0
07/02/2022,07:07:23,0.001,0.0,0.0,0.0
07/02/2022,07:08:23,0.002,0.0,0.0,0.0
07/02/2022,07:09:22,0.001,0.0,0.0,0.0
07/02/2022,07:10:23,0.001,0.0,0.0,0.0
07/02/2022,07:11:22,0.001,0.0,0.0,0.0
07/02/2022,07:12:23,0.001,0.0,0.0,0.0
07/02/2022,07:13:23,0.002,0.0,0.0,0.0
07/02/2022,07:14:31,0.002,0.0,0.0,0.0
07/02/2022,07:15:22,0.002,0.0,0.0,0.0
07/02/2022,07:16:22,0.002,0.0,0.0,0.0
07/02/2022,07:17:31,0.001,0.0,0.0,0.0
07/02/2022,07:18:23,0.002,0.0,0.0,0.0
07/02/2022,07:19:22,0.001,0.0,0.0,0.0
07/02/2022,07:20:22,0.001,0.0,0.0,0.0
07/02/2022,07:21:22,0.002,0.0,0.0,0.0
07/02/2022,07:22:23,0.001,0.0,0.0,0.0
07/02/2022,07:23:23,0.002,0.0,0.0,0.0
07/02/2022,07:24:22,0.002,0.0,0.0,0.0
07/02/2022,07:25:23,0.002,0.0,0.0,0.0
07/02/2022,07:26:23,0.003,0.0,0.0,0.0
07/02/2022,07:27:22,0.003,0.0,0.0,0.0
07/02/2022,07:28:23,0.001,0.0,0.0,0.0
07/02/2022,07:29:22,0.002,0.0,0.0,0.0
07/02/2022,07:30:22,0.003,0.0,0.0,0.0
07/02/2022,07:31:22,0.002,0.0,0.0,0.0
07/02/2022,07:32:23,0.002,0.0,0.0,0.0
07/02/2022,07:33:22,0.003,0.0,0.0,0.0
07/02/2022,07:34:23,0.003,0.0,0.0,0.0
07/02/2022,07:35:30,0.003,0.0,0.0,0.0
07/02/2022,07:36:23,0.003,0.0,0.0,0.0
07/02/2022,07:37:22,0.003,0.0,0.0,0.0
07/02/2022,07:38:22,0.004,0.0,0.0,0.0
07/02/2022,07:39:22,0.004,0.0,0.0,0.0
07/02/2022,07:40:23,0.004,0.0,0.0,0.0
07/02/2022,07:41:22,0.004,0.0,0.0,0.0
07/02/2022,07:42:23,0.005,0.0,0.0,0.0
07/02/2022,07:43:23,0.004,0.0,0.0,0.0
07/02/2022,07:44:22,0.005,0.0,0.0,0.0
07/02/2022,07:45:31,0.005,0.0,0.0,0.0
07/02/2022,07:46:22,0.005,0.0,0.0,0.0
07/02/2022,07:47:22,0.005,0.0,0.0,0.0
07/02/2022,07:48:30,0.006,0.0,0.0,0.0
07/02/2022,07:49:22,0.006,0.0,0.0,0.0
07/02/2022,07:50:22,0.006,0.0,0.0,0.0
07/02/2022,07:51:22,0.006,0.0,0.0,0.0
07/02/2022,07:52:22,0.006,0.0,0.0,0.0
07/02/2022,07:53:23,0.007,0.0,0.0,0.0
07/02/2022,07:54:23,0.007,0.0,0.001,0.001
07/02/2022,07:55:23,0.008,0.0,0.001,0.0
07/02/2022,07:56:22,0.008,0.0,0.001,0.0
07/02/2022,07:57:22,0.008,0.0,0.001,0.0
07/02/2022,07:58:23,0.009,0.0,0.001,0.0
07/02/2022,07:59:22,0.009,0.0,0.001,0.0
07/02/2022,08:00:22,0.009,0.0,0.001,0.0
07/02/2022,08:01:22,0.009,0.0,0.002,0.001
07/02/2022,08:02:23,0.010,0.0,0.002,0.0
07/02/2022,08:03:31,0.012,0.0,0.002,0.0
07/02/2022,08:04:23,0.011,0.0,0.002,0.0
07/02/2022,08:05:23,0.012,0.0,0.002,0.0
07/02/2022,08:06:30,0.012,0.0,0.003,0.001
07/02/2022,08:07:22,0.012,0.0,0.003,0.0
07/02/2022,08:08:22,0.013,0.0,0.003,0.0
07/02/2022,08:09:22,0.013,0.0,0.003,0.0
07/02/2022,08:10:23,0.013,0.0,0.003,0.0
07/02/2022,08:11:23,0.014,0.0,0.004,0.001
07/02/2022,08:12:31,0.016,0.0,0.004,0.0
07/02/2022,08:13:22,0.016,0.0,0.004,0.0
07/02/2022,08:15:15,0.016,0.0,0.005,0.001
07/02/2022,08:16:23,0.016,0.0,0.005,0.0
07/02/2022,08:17:22,0.016,0.0,0.005,0.0
07/02/2022,08:18:22,0.017,0.0,0.005,0.0
07/02/2022,08:19:22,0.018,0.0,0.006,0.001
07/02/2022,08:20:23,0.018,0.0,0.006,0.0
07/02/2022,08:21:23,0.020,0.0,0.006,0.0
07/02/2022,08:22:23,0.020,0.0,0.007,0.001
07/02/2022,08:23:22,0.020,0.0,0.007,0.0
07/02/2022,08:24:30,0.021,0.0,0.007,0.0
07/02/2022,08:25:22,0.022,0.0,0.008,0.001
07/02/2022,08:26:22,0.022,0.0,0.008,0.0
07/02/2022,08:27:23,0.023,0.0,0.008,0.0
07/02/2022,08:28:23,0.024,0.0,0.009,0.001
07/02/2022,08:29:23,0.025,0.0,0.009,-0.0
07/02/2022,08:30:22,0.026,0.0,0.01,0.001
07/02/2022,08:31:23,0.026,0.0,0.01,0.0
07/02/2022,08:32:22,0.028,0.0,0.011,0.001
07/02/2022,08:33:22,0.027,0.0,0.011,-0.0
07/02/2022,08:34:31,0.028,0.0,0.012,0.001
07/02/2022,08:35:23,0.029,0.0,0.012,0.0
07/02/2022,08:36:22,0.030,0.0,0.012,0.0
07/02/2022,08:37:22,0.030,0.0,0.013,0.001
07/02/2022,08:38:22,0.031,0.0,0.013,-0.0
07/02/2022,08:39:23,0.031,0.0,0.014,0.001
07/02/2022,08:40:23,0.034,0.0,0.015,0.001
07/02/2022,08:41:23,0.034,0.0,0.015,0.0
07/02/2022,08:42:31,0.035,0.0,0.016,0.001
07/02/2022,08:43:22,0.035,0.0,0.016,0.0
07/02/2022,08:44:23,0.037,0.0,0.017,0.001
07/02/2022,08:45:22,0.037,0.0,0.017,0.0
07/02/2022,08:46:22,0.038,0.0,0.018,0.001
07/02/2022,08:47:23,0.039,0.0,0.019,0.001
07/02/2022,08:48:23,0.040,0.0,0.019,0.0
07/02/2022,08:49:23,0.041,0.0,0.02,0.001
07/02/2022,08:50:22,0.043,0.0,0.021,0.001
07/02/2022,08:51:22,0.043,0.0,0.021,0.0
07/02/2022,08:52:30,0.044,0.0,0.022,0.001
07/02/2022,08:53:22,0.045,0.0,0.023,0.001
07/02/2022,08:54:23,0.047,0.0,0.024,0.001
07/02/2022,08:55:31,0.049,0.0,0.025,0.001
07/02/2022,08:56:23,0.049,0.0,0.025,0.0
07/02/2022,08:57:22,0.050,0.0,0.026,0.001
07/02/2022,08:58:22,0.050,0.0,0.027,0.001
07/02/2022,08:59:22,0.052,0.0,0.028,0.001
07/02/2022,09:00:23,0.054,0.0,0.029,0.001
07/02/2022,09:01:23,0.054,0.0,0.03,0.001
07/02/2022,09:02:22,0.056,0.0,0.031,0.001
07/02/2022,09:03:23,0.058,0.0,0.032,0.001
07/02/2022,09:04:22,0.058,0.0,0.032,0.0
07/02/2022,09:05:31,0.060,0.0,0.034,0.002
07/02/2022,09:06:22,0.060,0.0,0.034,0.0
07/02/2022,09:07:22,0.061,0.0,0.035,0.001
07/02/2022,09:08:22,0.062,0.0,0.036,0.001
07/02/2022,09:09:24,0.063,0.0,0.038,0.002
07/02/2022,09:10:23,0.064,0.0,0.039,0.001
07/02/2022,09:11:22,0.065,0.0,0.04,0.001
07/02/2022,09:12:23,0.066,0.0,0.041,0.001
07/02/2022,09:13:23,0.067,0.0,0.042,0.001
07/02/2022,09:14:22,0.067,0.0,0.043,0.001
07/02/2022,09:15:22,0.069,0.0,0.044,0.001
07/02/2022,09:16:23,0.071,0.0,0.045,0.001
07/02/2022,09:17:23,0.071,0.0,0.046,0.001
07/02/2022,09:18:23,0.073,0.0,0.048,0.002
07/02/2022,09:19:22,0.074,0.0,0.049,0.001
07/02/2022,09:20:22,0.075,0.0,0.05,0.001
07/02/2022,09:21:31,0.078,0.0,0.052,0.002
07/02/2022,09:22:23,0.079,0.0,0.053,0.001
07/02/2022,09:23:33,0.081,0.0,0.054,0.001
07/02/2022,09:24:22,0.083,0.0,0.055,0.001
07/02/2022,09:25:23,0.085,0.0,0.057,0.002
07/02/2022,09:26:22,0.087,0.0,0.058,0.001
07/02/2022,09:27:23,0.089,0.0,0.06,0.002
07/02/2022,09:28:23,0.091,0.0,0.061,0.001
07/02/2022,09:30:24,0.096,0.0,0.064,0.003
07/02/2022,09:31:23,0.097,0.0,0.066,0.002
07/02/2022,09:32:23,0.100,0.0,0.068,0.002
07/02/2022,09:33:23,0.100,0.0,0.069,0.001
07/02/2022,09:34:23,0.101,0.0,0.071,0.002
07/02/2022,09:35:22,0.100,0.0,0.073,0.002
07/02/2022,09:36:31,0.098,0.0,0.075,0.002
07/02/2022,09:37:22,0.098,0.0,0.076,0.001
07/02/2022,09:38:23,0.096,0.0,0.078,0.002
07/02/2022,09:39:23,0.096,0.0,0.079,0.001
07/02/2022,09:40:23,0.096,0.0,0.081,0.002
07/02/2022,09:41:23,0.096,0.0,0.082,0.001
07/02/2022,09:42:22,0.098,0.0,0.084,0.002
07/02/2022,09:43:22,0.100,0.0,0.086,0.002
07/02/2022,09:44:23,0.102,0.0,0.087,0.001
07/02/2022,09:45:23,0.105,0.0,0.089,0.002
07/02/2022,09:46:23,0.107,0.0,0.091,0.002
07/02/2022,09:47:23,0.110,0.0,0.093,0.002
07/02/2022,09:48:23,0.113,0.0,0.094,0.001
07/02/2022,09:49:23,0.117,0.0,0.096,0.002
07/02/2022,09:50:23,0.120,0.0,0.098,0.002
07/02/2022,09:51:25,0.121,0.0,0.1,0.002
07/02/2022,09:52:23,0.125,0.0,0.102,0.002
07/02/2022,09:53:23,0.127,0.0,0.104,0.002
07/02/2022,09:54:23,0.130,0.0,0.107,0.003
07/02/2022,09:55:23,0.130,0.0,0.109,0.002
07/02/2022,09:56:23,0.131,0.0,0.111,0.002
07/02/2022,09:57:23,0.132,0.0,0.113,0.002
07/02/2022,09:58:23,0.131,0.0,0.115,0.002
07/02/2022,09:59:23,0.132,0.0,0.117,0.002
07/02/2022,10:00:22,0.133,0.0,0.12,0.003
07/02/2022,10:01:22,0.133,0.0,0.122,0.002
07/02/2022,10:02:22,0.135,0.0,0.124,0.002
07/02/2022,10:03:23,0.136,0.0,0.126,0.002
07/02/2022,10:04:31,0.137,0.0,0.129,0.003
07/02/2022,10:05:23,0.137,0.0,0.131,0.002
07/02/2022,10:06:23,0.138,0.0,0.133,0.002
07/02/2022,10:07:23,0.139,0.0,0.136,0.003
07/02/2022,10:08:23,0.142,0.0,0.138,0.002
07/02/2022,10:09:23,0.144,0.0,0.14,0.002
07/02/2022,10:10:31,0.146,0.0,0.143,0.003
07/02/2022,10:11:23,0.147,0.0,0.145,0.002
07/02/2022,10:12:23,0.148,0.0,0.148,0.003
07/02/2022,10:13:22,0.149,0.0,0.15,0.002
07/02/2022,10:14:22,0.147,0.0,0.153,0.003
07/02/2022,10:15:23,0.145,0.0,0.155,0.002
07/02/2022,10:16:22,0.142,0.0,0.157,0.002
07/02/2022,10:17:22,0.144,0.0,0.16,0.003
07/02/2022,10:18:22,0.141,0.0,0.162,0.002
07/02/2022,10:19:23,0.140,0.0,0.164,0.002
07/02/2022,10:20:31,0.143,0.0,0.167,0.003
07/02/2022,10:21:23,0.141,0.0,0.169,0.002
07/02/2022,10:22:23,0.142,0.0,0.171,0.002
07/02/2022,10:23:23,0.142,0.0,0.174,0.003